[[{"header":{"parameterUnit":"m.s-1","parameterCategory":1,"la1":30.2991,"la2":30.254,"lo1":-89.0895,"lo2":-89.0444,"dy":0.0017,"dx":0.0017,"nx":28,"ny":28,"refTime":"2024-06-02T21:00:00:Z","depth":0,"parameterNumber":2,"parameterNumberName":"U-component_of_WINDS"},"data":[0,0,0,0,0,0,0,0,0,0,0,0,0,0,0,0,0,0,0,0,0,0,0,0,0,0,0,0,0,0,0,0,0,0,0,0,0,0,0,0,0,0,0,0,0,0,0,0,0,0,0,0,0,0,0,0,0,0,-2.2496,-2.2496,0,-2.25,-2.25,-2.25,-2.247,-2.2469,-2.2469,-2.2468,-2.2471,-2.2472,-2.2473,0,0,0,0,0,0,0,0,0,0,0,0,0,-2.2463,-2.2463,-2.2496,-2.2496,-2.2496,-2.25,-2.25,-2.25,-2.247,-2.2469,-2.2468,-2.2467,-2.2471,-2.2472,-2.2473,0,0,0,0,0,0,0,0,0,0,0,0,0,-2.2473,-2.2464,-2.2496,-2.2482,-2.248,-2.25,-2.25,-2.25,-2.2471,-2.2469,-2.2468,-2.2467,-2.2471,-2.2472,-2.2473,-2.2506,0,0,-2.2477,-2.2478,0,0,0,0,0,0,0,0,-2.2472,-2.2474,-2.2484,-2.2483,-2.2481,-2.2483,-2.249,-2.2502,-2.2471,-2.2474,-2.2468,-2.2466,-2.2476,-2.2477,-2.248,-2.2506,-2.2507,-2.2477,-2.2478,-2.2479,-2.2479,0,0,0,0,0,0,0,-2.2472,-2.2474,-2.2498,-2.2484,-2.2482,-2.2475,-2.2475,-2.2492,-2.2482,-2.2474,-2.2472,-2.2473,-2.2475,-2.2479,-2.248,-2.2507,-2.2477,-2.2478,-2.2479,-2.248,-2.2561,-2.2562,0,0,0,0,0,0,-2.2473,-2.2473,-2.2497,-2.2498,-2.2474,-2.2477,-2.2477,-2.2484,-2.2482,-2.248,-2.2474,-2.2471,-2.2478,-2.2479,-2.248,-2.2519,-2.2479,-2.248,-2.248,-2.256,-2.2561,-2.2563,0,0,0,0,0,0,-2.2472,-2.2475,-2.2497,-2.2485,-2.2487,-2.2479,-2.2487,-2.2485,-2.2489,-2.2482,-2.248,-2.248,-2.2477,-2.2478,-2.25,-2.2519,-2.248,-2.2482,-2.2558,-2.256,-2.2562,-2.2597,0,0,0,0,0,0,-2.2472,-2.2475,-2.2487,-2.2486,-2.2488,-2.2517,-2.2488,-2.2486,-2.2491,-2.2488,-2.2487,-2.2485,-2.2476,-2.2499,-2.2502,-2.252,-2.2483,-2.2556,-2.2559,-2.2561,-2.2594,-2.26,-2.2605,0,0,0,0,0,-2.247,-2.2497,-2.2488,-2.2491,-2.2503,-2.2518,-2.252,-2.2508,-2.2493,-2.2505,-2.2501,-2.2485,-2.2517,-2.2501,-2.2504,-2.2523,-2.2555,-2.2558,-2.2561,-2.2591,-2.2598,-2.2604,0,0,0,0,0,0,-2.25,-2.2496,-2.2487,-2.2513,-2.2516,-2.2513,-2.2528,-2.2516,-2.2523,-2.252,-2.2506,-2.2506,-2.253,-2.2529,-2.2512,-2.2556,-2.2533,-2.2537,-2.2555,-2.2562,-2.2567,-2.2566,-2.2484,0,0,0,0,0,-2.251,-2.2522,-2.2518,-2.2542,-2.2544,-2.2536,-2.2542,-2.2534,-2.2536,-2.2537,-2.2535,-2.2538,-2.2548,-2.2555,-2.2564,-2.2594,-2.2594,-2.2609,-2.2615,-2.2619,-2.2622,-2.2638,-2.2645,-2.2573,-2.2573,-2.2573,0,0,-2.253,-2.2529,-2.2538,-2.2548,-2.2549,-2.2563,-2.2537,-2.2552,-2.2562,-2.2539,-2.2559,-2.2558,-2.2561,-2.2587,-2.2598,-2.2587,-2.2642,-2.2623,-2.2627,-2.2627,-2.2642,-2.2649,-2.2655,-2.2575,-2.2575,-2.2574,0,0,-2.2572,-2.2573,-2.2593,-2.2596,-2.2599,-2.2594,-2.2599,-2.2598,-2.2596,-2.2617,-2.26,-2.2612,-2.2631,-2.2633,-2.2637,-2.2684,-2.2669,-2.2687,-2.2715,-2.273,-2.2736,-2.2741,-2.2757,-2.2763,-2.2691,-2.2691,-2.2691,0,-2.2596,-2.2615,-2.2605,-2.2621,-2.2627,-2.2608,-2.2629,-2.2632,-2.2637,-2.2641,-2.2629,-2.2652,-2.2653,-2.2679,-2.2691,-2.2695,-2.27,-2.2686,-2.2736,-2.2741,-2.2745,-2.276,-2.2766,-2.2693,-2.2693,-2.2692,-2.2692,0,-2.2645,-2.2659,-2.2675,-2.2681,-2.2689,-2.2707,-2.27,-2.2708,-2.27,-2.2697,-2.2718,-2.2719,-2.2728,-2.2734,-2.2726,-2.276,-2.2753,-2.2739,-2.2715,-2.2754,-2.2768,-2.2774,-2.2696,-2.2695,-2.2694,-2.2694,0,0,-2.2703,-2.2706,-2.2711,-2.2715,-2.2718,-2.2729,-2.2747,-2.2757,-2.2765,-2.277,-2.2785,-2.2802,-2.279,-2.2794,-2.2786,-2.28,-2.2837,-2.2784,-2.2784,-2.2793,-2.2874,-2.2883,-2.289,-2.2829,-2.283,-2.2831,-2.2873,0,-2.2744,-2.2774,-2.2767,-2.2797,-2.281,-2.2795,-2.2811,-2.2814,-2.2812,-2.2823,-2.2821,-2.2833,-2.2816,-2.2819,-2.2832,-2.2829,-2.2852,-2.2827,-2.2841,-2.2842,-2.2839,-2.2897,-2.2907,-2.2947,-2.2879,-2.288,-2.288,0,-2.2794,-2.2803,-2.2835,-2.2837,-2.2843,-2.2857,-2.2866,-2.2877,-2.2882,-2.2879,-2.2885,-2.2875,-2.2894,-2.2872,-2.2897,-2.288,-2.2886,-2.2886,-2.2887,-2.2886,-2.2862,-2.2897,-2.296,-2.2965,-2.2889,-2.2888,-2.2888,0,-2.2832,-2.2852,-2.2874,-2.2877,-2.2881,-2.2892,-2.2894,-2.2897,-2.2904,-2.2913,-2.2917,-2.2927,-2.2932,-2.2941,-2.2934,-2.2919,-2.296,-2.2938,-2.2958,-2.2958,-2.2965,-2.2964,-2.3028,-2.2972,-2.2972,-2.2972,-2.2972,0,-2.2877,-2.2897,-2.2891,-2.2904,-2.2927,-2.2919,-2.2941,-2.2941,-2.2945,-2.2958,-2.2946,-2.2958,-2.2949,-2.2961,-2.2957,-2.2978,-2.2981,-2.2979,-2.2977,-2.2979,-2.2979,-2.2981,-2.2977,-2.2973,-2.2973,-2.2973,-2.2972,0,-2.2922,-2.2919,-2.2942,-2.2944,-2.2946,-2.2962,-2.2964,-2.2976,-2.2975,-2.2992,-2.2995,-2.2992,-2.3006,-2.3,-2.3015,-2.3011,-2.3038,-2.3033,-2.3037,-2.3035,-2.3054,-2.3052,-2.312,-2.3129,-2.3069,-2.3069,-2.307,0,-2.295,-2.2965,-2.297,-2.2979,-2.2982,-2.2995,-2.3003,-2.2996,-2.3004,-2.3012,-2.3024,-2.3037,-2.3046,-2.3069,-2.3068,-2.3079,-2.3073,-2.3097,-2.3075,-2.3077,-2.3072,-2.3071,-2.3072,-2.31,-2.3101,-2.3102,-2.3102,0,-2.3,-2.2998,-2.3009,-2.3021,-2.3031,-2.3039,-2.3046,-2.3054,-2.3048,-2.3058,-2.3073,-2.308,-2.3096,-2.3109,-2.3119,-2.3121,-2.311,-2.311,-2.3115,-2.3116,-2.3116,-2.3115,-2.3047,-2.3107,-2.3107,-2.3106,-2.3106,-2.3106,-2.3036,-2.3049,-2.3055,-2.3069,-2.3074,-2.3082,-2.3094,-2.3095,-2.3106,-2.3119,-2.3115,-2.3131,-2.3137,-2.315,-2.3154,-2.3167,-2.3157,-2.3165,-2.3166,-2.3168,-2.317,-2.3116,-2.3169,-2.3168,-2.3168,-2.3168,-2.3168,0,-2.3084,-2.3088,-2.3101,-2.3112,-2.3123,-2.3114,-2.3123,-2.3132,-2.3147,-2.3154,-2.3164,-2.3181,-2.3194,-2.3195,-2.3207,-2.3217,-2.3213,-2.322,-2.3218,-2.3219,-2.3178,-2.3172,-2.3224,-2.3224,-2.3224,-2.3224,-2.3224,-2.3224,-2.311,-2.3132,-2.3132,-2.3156,-2.316,-2.3176,-2.3182,-2.3189,-2.3194,-2.3214,-2.3225,-2.3226,-2.3231,-2.3243,-2.3255,-2.3255,-2.3259,-2.3269,-2.3267,-2.3228,-2.3222,-2.3217,-2.3211,-2.327,-2.327,-2.3307,-2.3307,-2.3307]},{"header":{"parameterUnit":"m.s-1","parameterCategory":1,"la1":30.2991,"la2":30.254,"lo1":-89.0895,"lo2":-89.0444,"dy":0.0017,"dx":0.0017,"nx":28,"ny":28,"refTime":"2024-06-02T21:00:00:Z","depth":0,"parameterNumber":3,"parameterNumberName":"V-component_of_WINDS"},"data":[0,0,0,0,0,0,0,0,0,0,0,0,0,0,0,0,0,0,0,0,0,0,0,0,0,0,0,0,0,0,0,0,0,0,0,0,0,0,0,0,0,0,0,0,0,0,0,0,0,0,0,0,0,0,0,0,0,0,3.0921,3.0919,0,3.0746,3.0744,3.0742,3.0691,3.0692,3.0693,3.0694,3.0508,3.0502,3.0496,0,0,0,0,0,0,0,0,0,0,0,0,0,3.1206,3.1201,3.0922,3.0919,3.0917,3.0747,3.0744,3.0742,3.0691,3.0692,3.0694,3.0695,3.0509,3.0503,3.0496,0,0,0,0,0,0,0,0,0,0,0,0,0,3.1061,3.1199,3.0922,3.0872,3.0865,3.0747,3.0744,3.0741,3.0691,3.0692,3.0694,3.0695,3.0512,3.0503,3.0495,3.0412,0,0,3.0468,3.0464,0,0,0,0,0,0,0,0,3.107,3.1051,3.0881,3.0875,3.0868,3.0742,3.0776,3.063,3.0691,3.0757,3.0694,3.0696,3.0584,3.0569,3.0533,3.0403,3.0395,3.0467,3.0462,3.0458,3.0455,0,0,0,0,0,0,0,3.108,3.1058,3.0852,3.0879,3.087,3.0856,3.0837,3.0748,3.0664,3.0751,3.0747,3.0728,3.0581,3.0542,3.0528,3.0392,3.0467,3.0459,3.0454,3.0451,3.0185,3.0183,0,0,0,0,0,0,3.1099,3.1067,3.0857,3.0847,3.0975,3.0849,3.0828,3.0781,3.0665,3.0649,3.0727,3.0726,3.0556,3.0539,3.0522,3.0417,3.0458,3.045,3.0445,3.0187,3.0184,3.0182,0,0,0,0,0,0,3.1106,3.1081,3.0865,3.0956,3.0927,3.0843,3.079,3.0777,3.0738,3.0647,3.0631,3.0703,3.0557,3.0534,3.044,3.041,3.0446,3.0438,3.0189,3.0186,3.0183,3.0207,0,0,0,0,0,0,3.1114,3.1084,3.1053,3.0955,3.0922,3.0788,3.0788,3.0772,3.0724,3.0721,3.062,3.0605,3.0556,3.0453,3.0431,3.0398,3.0431,3.0191,3.0187,3.0184,3.0208,3.0205,3.0203,0,0,0,0,0,3.1124,3.1065,3.1051,3.1026,3.0882,3.0786,3.0767,3.0714,3.0722,3.0689,3.063,3.0608,3.0417,3.0444,3.0419,3.0383,3.0193,3.0188,3.0185,3.0209,3.0206,3.0203,0,0,0,0,0,0,3.1158,3.1051,3.1035,3.0943,3.0874,3.0778,3.0735,3.0712,3.0638,3.0638,3.0574,3.0551,3.0462,3.0413,3.0445,3.0296,3.0304,3.0295,3.0332,3.0327,3.0324,3.0338,3.0424,0,0,0,0,0,3.1155,3.1088,3.0997,3.0924,3.0891,3.0819,3.0775,3.0741,3.0666,3.0636,3.0571,3.0497,3.0421,3.0371,3.0296,3.0201,3.0178,3.0164,3.0161,3.0159,3.0151,3.0098,3.009,3.0169,3.0169,3.0169,0,0,3.1147,3.1081,3.1042,3.0929,3.0872,3.0802,3.0795,3.0721,3.0668,3.0624,3.0532,3.0482,3.0395,3.0301,3.0256,3.0257,3.0125,3.0154,3.0153,3.0146,3.0093,3.0085,3.0079,3.0167,3.0167,3.0167,0,0,3.1097,3.1041,3.0974,3.0918,3.0833,3.0785,3.077,3.0677,3.0642,3.0549,3.0515,3.045,3.032,3.026,3.0212,3.0141,3.0117,3.0118,3.0103,3.0051,3.0045,3.0039,3.0013,3.0004,3.0111,3.0111,3.0111,0,3.1098,3.0993,3.0942,3.087,3.0822,3.0782,3.0713,3.066,3.0553,3.0519,3.0523,3.0359,3.0298,3.0189,3.0172,3.0135,3.0114,3.0129,3.005,3.0044,3.0037,3.0012,3.0002,3.0112,3.0112,3.0112,3.0112,0,3.0998,3.0926,3.0882,3.0783,3.0729,3.0659,3.0595,3.0547,3.0517,3.0469,3.0375,3.0301,3.021,3.0181,3.0151,3.0068,3.0071,3.0063,3.0069,3.0032,3.0006,2.9996,3.0113,3.0112,3.0112,3.0112,0,0,3.0963,3.0838,3.0823,3.0777,3.0681,3.0623,3.0551,3.0465,3.0424,3.0352,3.0288,3.018,3.0173,3.0119,3.0081,3.0036,2.9984,3.0033,3.003,3.0026,2.9887,2.9893,2.9883,2.9969,2.9966,2.9965,2.9894,0,3.09,3.0772,3.0724,3.0618,3.0551,3.0513,3.045,3.0383,3.0336,3.027,3.0217,3.0142,3.0138,3.0105,3.0059,3.0001,2.9955,3.0005,2.9907,2.9904,2.9929,2.987,2.9875,2.9812,2.9884,2.9882,2.9881,0,3.081,3.074,3.0629,3.0541,3.0511,3.0456,3.0373,3.0311,3.0234,3.0203,3.0144,3.011,3.0031,3.0043,2.9933,2.9968,2.9925,2.989,2.9886,2.9874,2.989,2.9855,2.9791,2.9781,2.9865,2.9866,2.9868,0,3.0795,3.0673,3.059,3.0553,3.0449,3.0411,3.0365,3.029,3.0241,3.0168,3.0135,3.0053,3.0008,2.9944,2.9888,2.9903,2.9782,2.979,2.9753,2.9754,2.9728,2.973,2.9655,2.9702,2.9703,2.9703,2.9703,0,3.073,3.0663,3.0582,3.0531,3.0455,3.04,3.0325,3.0276,3.021,3.0147,3.0109,3.005,2.9981,2.9913,2.9868,2.9783,2.9763,2.9734,2.9723,2.9737,2.9741,2.9707,2.971,2.97,2.9701,2.9701,2.9702,0,3.0699,3.0643,3.0551,3.0461,3.0437,3.0384,3.0306,3.0254,3.0207,3.0129,3.0107,3.0031,2.995,2.9888,2.9781,2.9751,2.9661,2.9649,2.9687,2.9681,2.9647,2.9651,2.9547,2.953,2.959,2.959,2.9589,0,3.0661,3.0609,3.0515,3.0472,3.0427,3.0358,3.0309,3.0252,3.0202,3.0111,3.007,2.9986,2.9916,2.9787,2.9721,2.964,2.9625,2.9595,2.9612,2.9629,2.9624,2.9627,2.9621,2.9592,2.9591,2.9591,2.9591,0,3.0599,3.0574,3.0506,3.0428,3.0372,3.0307,3.0241,3.0208,3.0139,3.0084,3.0002,2.9948,2.9841,2.9758,2.967,2.962,2.9593,2.9586,2.9573,2.9586,2.9611,2.9596,2.968,2.9588,2.9589,2.9589,2.9589,2.9589,3.0562,3.0515,3.0441,3.0367,3.0312,3.0252,3.0199,3.0147,3.0078,2.9988,2.9958,2.9873,2.9796,2.9676,2.9626,2.9557,2.9556,2.9537,2.9532,2.9528,2.9529,2.9623,2.954,2.954,2.954,2.954,2.954,0,3.0498,3.0449,3.0381,3.0292,3.0234,3.0217,3.0144,3.0095,3.0021,2.9953,2.9886,2.9791,2.9711,2.964,2.9556,2.9514,2.95,2.9494,2.9495,2.9484,2.9535,2.9554,2.9507,2.9507,2.9507,2.9507,2.9507,2.9507,3.0457,3.0375,3.0342,3.0232,3.0183,3.0101,3.0061,3.0005,2.9951,2.9848,2.9782,2.9737,2.9667,2.9578,2.9503,2.9484,2.9454,2.9451,2.9429,2.9477,2.9481,2.9485,2.9503,2.9445,2.9445,2.9384,2.9383,2.9383]}]]